Location: Newark
(52.3735°N, 16.9806°E)
Time: 16:23:19
(UTC+00:00)

LilacSat-2 - Pass Details

Date: 03 December 2021
Orbit: 511 x 532 km, 97.5° (Epoch: 17 January)

Event Time Altitude Azimuth Distance (km) Brightness Sun altitude
Rises 03:42:47 0° 27° (NNE) 2,687 ? -26.3°
Reaches altitude 10° 03:45:32 10° 49° (NE) 1,793 ? -25.8°
Maximum altitude 03:48:05 17° 90° (E) 1,412 ? -25.4°
Drops below altitude 10° 03:50:37 10° 131° (SE) 1,786 ? -25.1°
Sets 03:53:21 0° 153° (SSE) 2,670 ? -24.6°
